TimeEDT,TemperatureF,Dew PointF,Humidity,Sea Level PressureIn,VisibilityMPH,Wind Direction,Wind SpeedMPH,Gust SpeedMPH,PrecipitationIn,Events,Conditions,WindDirDegrees,DateUTC
12:15 AM,69.8,69.8,100,30.13,0.5,Calm,Calm,-,N/A,,Overcast,0,2012-10-04 04:15:00
12:35 AM,69.8,69.8,100,30.13,0.5,Calm,Calm,-,N/A,,Overcast,0,2012-10-04 04:35:00
12:55 AM,69.8,68.0,94,30.13,0.2,Calm,Calm,-,N/A,,Overcast,0,2012-10-04 04:55:00
1:15 AM,69.8,69.8,100,30.13,0.2,Calm,Calm,-,N/A,,Overcast,0,2012-10-04 05:15:00
1:35 AM,69.8,69.8,100,30.13,0.2,Calm,Calm,-,N/A,,Overcast,0,2012-10-04 05:35:00
1:55 AM,69.8,68.0,94,30.14,0.2,Calm,Calm,-,N/A,,Overcast,0,2012-10-04 05:55:00
2:15 AM,69.8,68.0,94,30.13,0.2,Calm,Calm,-,N/A,,Overcast,0,2012-10-04 06:15:00
2:35 AM,68.0,68.0,100,30.13,0.5,Calm,Calm,-,N/A,,Overcast,0,2012-10-04 06:35:00
2:55 AM,68.0,68.0,100,30.13,0.5,Calm,Calm,-,N/A,,Overcast,0,2012-10-04 06:55:00
3:15 AM,69.8,68.0,94,30.13,3.0,Calm,Calm,-,N/A,,Mostly Cloudy,0,2012-10-04 07:15:00
3:35 AM,69.8,68.0,94,30.13,2.5,Calm,Calm,-,N/A,,Partly Cloudy,0,2012-10-04 07:35:00
3:55 AM,68.0,66.2,94,30.13,1.8,Calm,Calm,-,N/A,,Scattered Clouds,0,2012-10-04 07:55:00
4:15 AM,68.0,66.2,94,30.12,1.8,Calm,Calm,-,N/A,,Scattered Clouds,0,2012-10-04 08:15:00
4:35 AM,68.0,66.2,94,30.13,0.8,Calm,Calm,-,N/A,,Overcast,0,2012-10-04 08:35:00
4:55 AM,68.0,66.2,94,30.12,0.8,Calm,Calm,-,N/A,,Overcast,0,2012-10-04 08:55:00
5:15 AM,68.0,66.2,94,30.12,2.0,Calm,Calm,-,N/A,,Overcast,0,2012-10-04 09:15:00
5:35 AM,68.0,66.2,94,30.13,4.0,Calm,Calm,-,N/A,,Partly Cloudy,0,2012-10-04 09:35:00
5:55 AM,68.0,66.2,94,30.13,3.0,Calm,Calm,-,N/A,,Scattered Clouds,0,2012-10-04 09:55:00
6:15 AM,68.0,66.2,94,30.13,3.0,Calm,Calm,-,N/A,,Scattered Clouds,0,2012-10-04 10:15:00
6:55 AM,66.2,64.4,94,30.14,4.0,Calm,Calm,-,N/A,,Partly Cloudy,0,2012-10-04 10:55:00
7:15 AM,68.0,66.2,94,30.13,3.0,Calm,Calm,-,N/A,,Clear,0,2012-10-04 11:15:00
7:35 AM,68.0,66.2,94,30.13,4.0,Calm,Calm,-,N/A,,Clear,0,2012-10-04 11:35:00
7:55 AM,68.0,66.2,94,30.13,3.0,Calm,Calm,-,N/A,,Scattered Clouds,0,2012-10-04 11:55:00
8:15 AM,69.8,66.2,88,30.13,4.0,Calm,Calm,-,N/A,,Mostly Cloudy,0,2012-10-04 12:15:00
8:35 AM,69.8,68.0,94,30.13,4.0,Calm,Calm,-,N/A,,Overcast,0,2012-10-04 12:35:00
8:55 AM,69.8,68.0,94,30.14,3.0,Calm,Calm,-,N/A,,Overcast,0,2012-10-04 12:55:00
9:15 AM,69.8,68.0,94,30.14,3.0,Calm,Calm,-,N/A,,Overcast,0,2012-10-04 13:15:00
9:35 AM,69.8,68.0,94,30.15,4.0,West,3.5,-,N/A,,Overcast,280,2012-10-04 13:35:00
9:55 AM,69.8,68.0,94,30.14,5.0,Calm,Calm,-,N/A,,Mostly Cloudy,0,2012-10-04 13:55:00
10:15 AM,69.8,68.0,94,30.14,5.0,Calm,Calm,-,N/A,,Mostly Cloudy,0,2012-10-04 14:15:00
10:35 AM,71.6,69.8,94,30.14,5.0,Calm,Calm,-,N/A,,Overcast,0,2012-10-04 14:35:00
10:55 AM,71.6,68.0,88,30.14,6.0,Calm,Calm,-,N/A,,Overcast,0,2012-10-04 14:55:00
11:15 AM,71.6,68.0,88,30.13,7.0,Calm,Calm,-,N/A,,Overcast,0,2012-10-04 15:15:00
11:35 AM,71.6,69.8,94,30.11,6.0,East,5.8,-,N/A,,Overcast,100,2012-10-04 15:35:00
11:55 AM,71.6,69.8,94,30.11,7.0,ESE,6.9,-,N/A,,Mostly Cloudy,110,2012-10-04 15:55:00
12:15 PM,71.6,68.0,88,30.11,5.0,East,8.1,-,N/A,,Mostly Cloudy,100,2012-10-04 16:15:00
12:35 PM,71.6,68.0,88,30.11,5.0,South,6.9,-,N/A,,Scattered Clouds,170,2012-10-04 16:35:00
12:55 PM,71.6,68.0,88,30.11,6.0,Calm,Calm,-,N/A,,Mostly Cloudy,0,2012-10-04 16:55:00
1:15 PM,73.4,68.0,83,30.10,8.0,SE,3.5,-,N/A,,Mostly Cloudy,130,2012-10-04 17:15:00
1:35 PM,73.4,69.8,88,30.10,8.0,SE,3.5,-,N/A,,Partly Cloudy,140,2012-10-04 17:35:00
1:55 PM,73.4,69.8,88,30.09,6.0,SE,4.6,-,N/A,,Clear,140,2012-10-04 17:55:00
2:35 PM,75.2,69.8,83,30.08,8.0,South,3.5,-,N/A,,Clear,170,2012-10-04 18:35:00
2:55 PM,75.2,69.8,83,30.08,8.0,SSW,3.5,-,N/A,,Partly Cloudy,210,2012-10-04 18:55:00
3:15 PM,75.2,69.8,83,30.07,9.0,SE,3.5,-,N/A,,Mostly Cloudy,130,2012-10-04 19:15:00
3:35 PM,75.2,69.8,83,30.07,10.0,Calm,Calm,-,N/A,,Mostly Cloudy,0,2012-10-04 19:35:00
3:55 PM,75.2,69.8,83,30.07,10.0,Calm,Calm,-,N/A,,Mostly Cloudy,0,2012-10-04 19:55:00
4:15 PM,75.2,69.8,83,30.06,9.0,ESE,5.8,-,N/A,,Mostly Cloudy,110,2012-10-04 20:15:00
4:35 PM,73.4,69.8,88,30.06,9.0,SE,3.5,-,N/A,,Scattered Clouds,130,2012-10-04 20:35:00
4:55 PM,73.4,69.8,88,30.06,9.0,SE,3.5,-,N/A,,Mostly Cloudy,140,2012-10-04 20:55:00
5:15 PM,73.4,69.8,88,30.06,10.0,Calm,Calm,-,N/A,,Mostly Cloudy,0,2012-10-04 21:15:00
5:35 PM,73.4,69.8,88,30.05,10.0,Calm,Calm,-,N/A,,Mostly Cloudy,0,2012-10-04 21:35:00
5:55 PM,73.4,69.8,88,30.05,9.0,Calm,Calm,-,N/A,,Mostly Cloudy,0,2012-10-04 21:55:00
6:15 PM,73.4,69.8,88,30.05,9.0,South,3.5,-,N/A,,Partly Cloudy,180,2012-10-04 22:15:00
6:55 PM,71.6,69.8,94,30.05,8.0,SSW,4.6,-,N/A,,Clear,200,2012-10-04 22:55:00
7:15 PM,71.6,69.8,94,30.04,8.0,West,3.5,-,N/A,,Partly Cloudy,260,2012-10-04 23:15:00
7:35 PM,71.6,69.8,94,30.05,6.0,Calm,Calm,-,N/A,,Scattered Clouds,0,2012-10-04 23:35:00
7:55 PM,69.8,68.0,94,30.05,6.0,Calm,Calm,-,N/A,,Partly Cloudy,0,2012-10-04 23:55:00
8:15 PM,69.8,68.0,94,30.06,5.0,Calm,Calm,-,N/A,,Scattered Clouds,0,2012-10-05 00:15:00